Weather History for Fayetteville, AR

Change the Weather History Date:

Tuesday, January 15, 2013

  Actual Average Record
Temperature  
Mean Temperature 25 °F 35 °F  
Max Temperature 36 °F 46 °F 70 °F (1952)
Min Temperature 14 °F 25 °F 2 °F (1972)
Degree Days  
Heating Degree Days 40 30  
Month to date heating degree days 435 450  
Since 1 July heating degree days 1953 2133  
Moisture  
Dew Point 16 °F    
Average Humidity 69    
Maximum Humidity 88    
Minimum Humidity 49    
Precipitation  
Precipitation 0.00 in 0.09 in 0.47 in (1949)
Month to date precipitation 0.34 1.39  
Year to date precipitation 0.34 1.39  
Sea Level Pressure  
Sea Level Pressure 30.26 in    
Wind  
Wind Speed 3 mph (NE)    
Max Wind Speed 10 mph    
Max Gust Speed 15 mph    
Visibility 10 miles    
Events      
T = Trace of Precipitation, MM = Missing Value Source: NWS Daily Summary

Daily Weather History Graph

Daily Weather History Graph

Search for Another Location

Airport:

Trip Planner

Search our weather history database for the weather conditions in past years. The results will help you decide how hot, cold, wet, or windy it might be!

Date:

Astronomy

Jan. 15, 2013 Rise Set
Actual Time 7:26 AM CST 5:26 PM CST
Civil Twilight 6:58 AM CST 5:54 PM CST
Nautical Twilight 6:27 AM CST 6:25 PM CST
Astronomical Twilight 5:56 AM CST 6:56 PM CST
Moon 9:42 AM CST (1/15) 10:06 PM CST (1/15)
Length of Visible Light 10h 55m
Length of Day
9h 59m
Waxing Crescent, 19% of the Moon is Illuminated
Jan 15
Waxing Crescent
Jan 18
First Quarter
Jan 26
Full
Feb 3
Last Quarter
Feb 10
New

Hourly Weather History & Observations

Time (CST) Temp. Windchill Dew Point Humidity Pressure Visibility Wind Dir Wind Speed Gust Speed Precip Events Conditions
12:53 AM 19.9 °F - 12.9 °F 74% 30.35 in 10.0 mi Calm Calm - N/A   Clear
1:53 AM 19.0 °F - 12.0 °F 74% 30.33 in 10.0 mi Calm Calm - N/A   Clear
2:53 AM 19.0 °F 12.3 °F 12.9 °F 77% 30.31 in 10.0 mi Variable 4.6 mph - N/A   Clear
3:53 AM 19.0 °F - 12.9 °F 77% 30.30 in 10.0 mi Calm Calm - N/A   Clear
4:53 AM 18.0 °F - 12.9 °F 81% 30.31 in 10.0 mi Calm Calm - N/A   Clear
5:53 AM 17.1 °F - 12.9 °F 84% 30.31 in 10.0 mi Calm Calm - N/A   Clear
6:53 AM 18.0 °F - 14.0 °F 84% 30.31 in 10.0 mi Calm Calm - N/A   Clear
7:53 AM 19.9 °F 13.4 °F 15.1 °F 81% 30.28 in 10.0 mi Variable 4.6 mph - N/A   Mostly Cloudy
8:53 AM 21.0 °F 16.2 °F 15.1 °F 78% 30.35 in 10.0 mi ENE 3.5 mph - N/A   Overcast
9:53 AM 21.9 °F 13.4 °F 16.0 °F 78% 30.34 in 10.0 mi East 6.9 mph - N/A   Overcast
10:53 AM 23.0 °F 13.9 °F 15.1 °F 72% 30.31 in 10.0 mi ENE 8.1 mph - N/A   Overcast
11:53 AM 27.0 °F 19.5 °F 16.0 °F 63% 30.25 in 10.0 mi East 6.9 mph - N/A   Mostly Cloudy
12:53 PM 32.0 °F 24.8 °F 17.1 °F 54% 30.21 in 10.0 mi East 8.1 mph - N/A   Scattered Clouds
1:53 PM 34.0 °F 28.8 °F 19.9 °F 56% 30.19 in 10.0 mi East 5.8 mph - N/A   Mostly Cloudy
2:53 PM 34.0 °F 28.8 °F 19.9 °F 56% 30.18 in 10.0 mi North 5.8 mph - N/A   Overcast
3:53 PM 34.0 °F 31.0 °F 19.9 °F 56% 30.20 in 10.0 mi NNE 3.5 mph - N/A   Overcast
4:53 PM 33.1 °F 28.7 °F 17.1 °F 52% 30.21 in 10.0 mi NE 4.6 mph - N/A   Overcast
5:53 PM 32.0 °F 27.5 °F 16.0 °F 52% 30.22 in 10.0 mi North 4.6 mph - N/A   Overcast
6:53 PM 30.9 °F - 16.0 °F 54% 30.22 in 10.0 mi Calm Calm - N/A   Overcast
7:53 PM 28.9 °F - 16.0 °F 58% 30.22 in 10.0 mi Calm Calm - N/A   Mostly Cloudy
8:53 PM 30.0 °F - 15.1 °F 54% 30.20 in 10.0 mi Calm Calm - N/A   Overcast
9:53 PM 27.0 °F 21.6 °F 18.0 °F 69% 30.22 in 10.0 mi WNW 4.6 mph - N/A   Overcast
10:53 PM 25.0 °F 17.1 °F 21.0 °F 85% 30.21 in 10.0 mi NNW 6.9 mph - N/A   Mostly Cloudy